Wind_Speed
66 66 66 67 67 68 70 71 72 72 73 73 73 74 73 73 72 71 71 71 70 68 67 66 65 65 65 64 63 62 61 60 60 59 59 59 58 57 57 56 56 57 57
71 70 70 71 72 72 74 74 75 75 75 75 75 75 75 74 74 72 72 72 72 71 70 70 69 69 69 69 68 66 64 63 63 62 61 61 60 59 59 58 57 57 58
77 76 76 76 77 77 78 79 79 79 79 78 77 77 77 77 76 75 75 76 76 76 75 74 74 74 73 72 71 70 68 67 66 64 63 63 62 62 61 59 58 58 58
83 83 82 82 82 83 84 84 84 84 83 83 83 82 81 80 79 79 79 80 80 79 79 78 78 77 76 75 74 73 71 69 68 67 65 64 64 63 62 60 59 59 58
90 88 87 86 86 87 88 89 90 89 88 87 87 88 87 86 84 84 84 84 84 83 83 82 81 79 78 78 76 74 73 71 69 67 66 65 65 64 63 62 61 60 59
94 94 93 92 91 90 90 90 91 92 92 91 90 91 91 91 90 89 89 89 89 88 86 85 84 81 80 79 78 76 74 73 70 68 67 66 65 65 65 64 63 62 61
99 99 99 98 96 96 95 95 94 93 93 94 94 94 93 93 93 92 91 90 91 90 89 87 85 82 81 80 79 78 76 74 72 70 68 66 65 66 66 66 65 64 64
104 104 104 104 102 101 101 100 100 99 98 97 96 96 95 95 95 94 92 91 90 89 88 87 85 83 81 81 80 80 77 75 73 71 70 68 68 68 68 67 67 67 67
101 102 103 104 104 103 103 102 102 102 101 101 100 99 97 95 95 94 93 92 90 88 87 85 84 82 80 80 81 80 78 75 74 72 71 70 69 69 68 68 68 69 70
95 96 97 97 98 99 99 99 99 99 100 101 101 100 99 97 96 95 94 93 90 88 86 84 82 80 79 78 77 77 76 75 74 73 72 72 72 70 69 69 70 71 72
92 92 93 93 94 94 95 94 95 95 95 96 97 97 98 98 97 96 94 93 90 88 86 83 81 79 78 77 76 75 74 74 74 74 73 73 73 71 70 70 71 72 73
91 91 91 91 92 92 93 93 93 93 93 91 91 91 92 94 95 96 95 94 91 88 84 80 77 76 76 76 76 75 74 73 73 74 73 72 71 70 70 70 71 73 74
89 89 90 90 90 90 91 91 91 91 92 91 90 88 87 88 89 91 93 93 91 89 85 80 77 74 74 75 74 74 74 73 72 72 70 69 69 69 70 70 71 72 72
86 85 85 85 85 85 86 87 88 88 89 89 88 87 85 83 83 84 87 89 90 90 87 83 79 77 75 74 73 73 72 71 70 69 69 69 69 70 70 70 70 70 71
78 77 77 77 77 77 78 79 81 82 83 85 84 83 82 79 77 79 80 82 84 85 85 84 81 78 75 74 73 72 71 70 69 68 68 68 69 69 70 70 70 71 73
67 66 66 66 67 68 69 69 71 74 75 78 78 78 76 74 74 75 75 76 77 79 81 81 79 78 77 75 74 72 71 70 69 69 70 70 70 70 71 72 72 72 73
59 58 58 59 60 60 60 60 60 61 65 68 69 70 69 68 69 70 72 73 74 74 75 75 75 74 74 74 74 72 71 71 71 71 71 71 71 71 71 71 71 72 73
50 50 51 52 52 52 51 51 51 51 52 55 58 59 60 61 62 64 67 70 71 71 69 68 68 69 70 70 71 71 72 73 74 73 72 71 71 70 69 69 69 69 70
41 42 41 40 39 39 38 38 38 39 39 42 45 48 51 53 56 58 62 65 65 66 65 63 63 63 64 65 67 68 69 70 71 70 68 68 67 66 65 65 66 67 69
33 32 30 29 28 27 26 25 25 26 27 29 33 37 41 45 48 51 56 59 61 63 63 62 60 59 59 60 61 61 61 62 62 62 62 62 62 62 63 64 65 67 69
27 27 25 24 22 20 19 18 17 17 17 19 22 27 32 36 40 44 49 54 57 60 61 61 61 59 59 60 60 59 59 58 58 58 58 59 60 62 63 65 66 68 69
25 24 23 21 20 19 17 16 14 12 11 12 14 18 22 27 31 36 42 47 51 54 57 58 59 60 62 62 61 60 59 58 58 58 59 60 61 63 64 65 66 67 68
24 24 23 21 19 18 16 14 13 12 10 9 9 11 14 18 22 27 32 38 42 46 51 54 56 58 59 59 59 58 58 58 58 59 60 60 61 61 62 63 63 63 64
26 25 24 23 21 18 16 14 13 12 10 9 7 6 7 10 14 18 22 27 32 37 41 45 48 50 51 51 51 52 52 53 53 54 55 56 57 57 57 58 58 59 60
31 30 28 26 23 21 18 15 13 11 10 8 7 5 5 5 8 11 14 18 22 26 30 34 36 38 40 41 42 43 44 45 46 47 48 49 50 51 52 53 54 55 56
31 31 32 31 28 25 21 18 15 12 9 8 7 6 6 6 7 9 11 13 16 19 22 25 27 30 32 33 35 36 37 38 40 42 43 45 46 47 48 49 50 52 53
Wind_Direction
269 267 265 263 262 260 260 261 261 261 261 261 261 260 260 259 258 257 256 255 255 254 254 255 257 259 261 264 266 268 270 270 270 270 269 268 267 266 266 266 267 267 268
268 266 264 263 261 259 258 258 258 258 259 260 260 259 258 257 256 255 254 254 254 254 254 256 257 259 261 263 265 268 270 270 270 269 268 267 266 265 265 265 266 267 269
267 266 264 263 261 259 258 257 257 257 257 257 258 257 256 255 254 253 252 252 253 253 255 257 258 260 262 264 267 268 270 270 270 269 268 266 265 264 264 264 265 266 269
268 267 266 264 262 261 259 258 257 257 256 256 256 255 254 253 253 252 252 252 252 253 255 257 259 261 263 265 267 269 270 270 270 269 267 265 264 264 263 263 264 266 269
270 269 268 266 265 263 262 260 259 257 256 255 255 255 254 253 252 251 250 251 252 253 255 257 259 261 263 265 267 268 270 270 270 268 266 265 264 263 263 263 264 266 268
273 272 270 268 267 265 264 262 261 259 257 256 255 254 254 254 254 253 252 252 253 254 255 257 259 260 262 264 265 267 268 269 269 268 267 265 264 263 263 264 265 266 267
274 273 272 271 269 267 265 263 262 260 259 258 257 255 255 255 256 255 255 255 254 255 256 257 258 258 260 262 263 264 266 267 267 267 267 265 264 263 264 264 265 266 266
275 274 274 273 271 269 267 265 263 261 259 258 257 257 256 256 256 256 255 255 255 256 257 257 257 258 259 260 261 262 264 265 266 266 265 264 264 264 265 266 266 266 267
276 275 275 274 273 271 269 267 265 263 260 259 257 256 255 255 255 255 255 255 255 255 256 257 257 258 258 259 260 261 262 262 263 264 264 264 265 266 266 266 265 266 266
277 276 276 275 274 273 271 269 267 265 262 259 257 256 254 253 252 252 253 253 254 253 254 255 256 256 257 258 259 260 261 262 262 263 264 264 266 266 265 265 265 264 265
278 277 276 276 275 274 272 271 269 267 264 261 259 256 254 252 251 250 251 251 251 252 252 253 254 254 255 256 256 258 259 260 260 261 262 263 264 264 264 264 264 264 265
280 279 277 276 275 274 272 271 270 268 266 263 260 257 254 253 251 250 249 249 249 249 249 250 250 251 252 253 254 255 256 257 258 259 261 262 262 263 263 264 264 264 264
281 280 279 277 275 274 272 270 269 267 266 264 261 258 255 253 251 250 249 248 248 248 248 247 246 247 249 251 252 253 253 254 255 257 259 259 259 260 261 263 264 264 264
283 282 280 278 276 274 272 270 268 266 265 263 261 259 256 253 251 249 247 247 247 247 247 246 245 245 247 249 250 251 252 253 254 255 255 256 258 260 261 262 263 264 265
285 284 283 281 279 276 273 271 269 266 265 263 261 259 256 253 250 248 246 245 245 245 245 244 243 244 246 248 249 250 251 252 252 253 254 255 257 259 260 261 263 264 265
289 287 285 284 282 279 277 273 271 268 264 262 260 258 256 253 249 247 244 243 243 243 244 243 242 243 244 246 246 248 250 251 251 251 252 254 256 258 260 262 263 264 265
292 290 288 287 285 282 279 277 273 268 266 262 259 256 254 251 248 245 242 241 240 241 242 241 241 242 243 245 246 247 249 249 249 250 252 254 256 258 260 261 262 263 264
296 295 293 291 289 286 283 280 276 271 266 262 258 255 252 249 245 242 240 239 238 239 240 241 241 242 243 245 245 246 247 247 248 250 252 254 256 257 259 259 260 262 263
304 304 302 300 297 294 289 284 279 274 267 261 256 252 249 246 243 240 238 236 235 236 237 237 239 241 242 243 244 245 245 246 246 248 250 252 254 256 257 259 261 263 265
317 318 318 316 313 309 303 296 289 280 271 262 254 249 246 243 240 237 235 233 232 232 233 233 235 237 238 239 240 241 242 243 244 247 249 251 253 256 258 260 262 265 267
330 331 333 333 332 328 324 316 306 293 280 266 256 248 244 241 238 235 233 231 230 229 230 231 232 234 235 236 237 239 241 243 245 248 250 253 255 258 260 263 265 266 269
341 340 339 339 340 340 339 336 331 320 303 282 266 253 245 240 238 235 233 231 229 229 229 229 231 233 235 237 239 241 244 246 248 251 253 256 258 260 262 264 266 267 269
355 353 351 348 344 343 343 343 341 338 329 312 288 265 249 240 236 234 232 230 229 228 228 229 231 234 237 240 242 245 247 249 251 253 255 257 259 261 262 264 265 267 268
6 3 -0 357 355 351 346 341 338 337 335 328 314 294 264 244 236 232 230 229 229 229 230 231 233 235 238 241 243 245 247 249 251 253 254 256 258 259 261 263 265 266 268
15 13 11 7 2 357 352 347 340 331 324 320 312 299 283 259 241 234 232 231 231 231 232 233 235 237 239 241 243 245 246 248 250 252 254 256 258 259 261 263 265 267 270
10 10 11 10 9 5 0 354 348 340 326 309 295 279 265 254 243 237 234 232 232 232 232 233 234 237 239 242 245 246 248 249 251 253 255 256 258 259 261 264 266 269 272
Height
5628 5628 5628 5628 5628 5628 5627 5627 5626 5626 5626 5626 5626 5627 5627 5629 5630 5631 5633 5634 5635 5636 5638 5639 5641 5642 5642 5643 5643 5644 5644 5644 5645 5646 5646 5646 5647 5649 5650 5650 5650 5651 5651
5605 5606 5606 5606 5606 5606 5605 5604 5604 5604 5605 5605 5605 5606 5607 5608 5609 5611 5613 5614 5617 5618 5620 5621 5622 5623 5624 5625 5626 5627 5627 5626 5627 5628 5628 5629 5630 5632 5633 5634 5634 5634 5635
5583 5583 5583 5582 5582 5582 5582 5582 5582 5582 5582 5583 5584 5585 5586 5586 5587 5590 5591 5593 5596 5598 5599 5601 5603 5603 5605 5607 5608 5608 5608 5608 5608 5610 5610 5611 5612 5614 5615 5616 5616 5617 5617
5558 5558 5557 5557 5557 5557 5557 5557 5557 5558 5558 5559 5560 5562 5563 5564 5566 5567 5568 5570 5573 5576 5578 5580 5582 5583 5586 5587 5587 5589 5589 5589 5590 5590 5592 5592 5594 5595 5596 5598 5599 5599 5600
5530 5530 5530 5530 5530 5530 5529 5530 5530 5531 5532 5533 5535 5536 5538 5540 5542 5542 5543 5545 5548 5552 5555 5558 5561 5563 5565 5566 5567 5569 5569 5569 5570 5571 5573 5574 5575 5576 5578 5579 5580 5581 5581
5500 5500 5500 5500 5500 5500 5500 5500 5501 5502 5504 5505 5507 5509 5512 5515 5516 5517 5518 5521 5523 5527 5532 5535 5539 5542 5545 5545 5546 5547 5549 5550 5552 5553 5554 5555 5556 5557 5558 5560 5561 5562 5563
5470 5468 5467 5467 5468 5468 5469 5469 5470 5472 5474 5476 5478 5480 5484 5487 5489 5490 5492 5495 5499 5503 5508 5512 5516 5520 5523 5524 5525 5526 5527 5530 5532 5534 5535 5537 5537 5538 5539 5541 5542 5543 5543
5438 5436 5434 5432 5433 5433 5434 5435 5436 5438 5441 5444 5447 5450 5454 5459 5460 5462 5464 5467 5473 5479 5483 5488 5492 5496 5500 5501 5502 5503 5507 5509 5512 5514 5516 5517 5516 5518 5520 5522 5522 5523 5524
5408 5404 5401 5398 5397 5397 5397 5397 5399 5401 5405 5409 5414 5418 5423 5429 5430 5433 5435 5439 5446 5453 5458 5462 5467 5472 5477 5478 5478 5482 5485 5488 5489 5492 5494 5494 5496 5497 5500 5501 5502 5503 5503
5377 5374 5370 5366 5363 5361 5360 5361 5362 5363 5367 5372 5378 5383 5389 5396 5400 5403 5406 5411 5420 5427 5431 5436 5442 5447 5451 5452 5455 5458 5462 5467 5468 5470 5471 5472 5474 5477 5479 5480 5481 5482 5482
5347 5344 5340 5336 5332 5329 5327 5327 5326 5327 5330 5336 5342 5350 5355 5362 5369 5373 5377 5382 5390 5397 5403 5411 5417 5422 5425 5429 5431 5435 5440 5443 5445 5446 5449 5450 5453 5455 5457 5459 5459 5460 5461
5317 5313 5309 5305 5301 5298 5295 5295 5294 5293 5295 5301 5305 5313 5321 5328 5335 5341 5347 5353 5360 5367 5376 5384 5391 5397 5400 5403 5407 5412 5415 5418 5422 5424 5428 5430 5432 5434 5435 5436 5437 5438 5438
5285 5280 5276 5272 5269 5265 5262 5261 5261 5260 5260 5265 5270 5278 5288 5295 5303 5310 5317 5323 5330 5338 5349 5358 5366 5371 5374 5378 5383 5388 5391 5396 5401 5403 5407 5410 5410 5411 5412 5414 5415 5416 5415
5253 5249 5244 5239 5236 5234 5230 5228 5227 5228 5229 5231 5236 5244 5254 5264 5273 5280 5286 5292 5300 5309 5321 5331 5339 5345 5349 5354 5359 5364 5370 5375 5380 5382 5385 5387 5388 5389 5390 5392 5393 5393 5393
5224 5219 5214 5208 5204 5202 5199 5197 5195 5197 5197 5200 5205 5212 5221 5234 5244 5249 5256 5265 5273 5281 5291 5303 5313 5321 5326 5332 5338 5343 5349 5354 5358 5360 5362 5365 5366 5367 5369 5370 5371 5371 5372
5200 5194 5188 5182 5177 5173 5170 5170 5168 5167 5169 5170 5175 5182 5192 5204 5213 5220 5229 5237 5245 5254 5263 5277 5289 5296 5302 5308 5315 5321 5328 5332 5335 5337 5339 5342 5344 5345 5347 5348 5348 5349 5349
5179 5173 5167 5161 5155 5150 5146 5144 5144 5144 5142 5145 5149 5156 5164 5175 5184 5193 5202 5211 5220 5229 5240 5254 5265 5272 5278 5285 5292 5299 5305 5309 5311 5313 5316 5319 5322 5323 5324 5325 5326 5327 5327
5162 5155 5149 5142 5136 5130 5126 5123 5122 5122 5122 5123 5127 5133 5141 5150 5159 5168 5178 5186 5197 5209 5221 5233 5242 5249 5256 5263 5270 5276 5281 5285 5288 5291 5294 5297 5300 5301 5303 5304 5305 5305 5305
5149 5142 5135 5127 5121 5115 5111 5107 5105 5105 5106 5107 5110 5115 5122 5130 5138 5147 5156 5166 5179 5190 5202 5213 5222 5229 5236 5242 5247 5252 5257 5261 5265 5269 5273 5276 5279 5280 5282 5283 5284 5284 5284
5141 5133 5126 5119 5113 5107 5103 5099 5097 5095 5095 5096 5099 5103 5108 5114 5122 5130 5138 5149 5159 5170 5182 5194 5203 5211 5217 5221 5225 5230 5235 5241 5245 5249 5253 5256 5258 5260 5262 5263 5263 5263 5263
5136 5129 5122 5116 5110 5105 5100 5096 5093 5091 5090 5090 5092 5094 5098 5103 5110 5117 5124 5133 5142 5153 5164 5176 5185 5192 5196 5199 5205 5212 5218 5223 5227 5231 5235 5237 5239 5241 5242 5243 5243 5243 5242
5134 5127 5121 5115 5110 5105 5100 5096 5093 5091 5089 5088 5089 5090 5092 5096 5101 5106 5113 5120 5129 5138 5148 5157 5165 5171 5175 5182 5190 5196 5202 5206 5210 5214 5216 5218 5220 5221 5222 5223 5223 5222 5221
5134 5127 5121 5115 5110 5105 5101 5097 5094 5092 5090 5089 5088 5088 5090 5092 5095 5099 5104 5110 5118 5125 5133 5141 5148 5154 5161 5169 5176 5181 5185 5189 5193 5195 5198 5200 5201 5202 5203 5203 5203 5203 5202
5135 5129 5122 5116 5111 5106 5102 5098 5096 5093 5092 5090 5089 5089 5089 5091 5093 5096 5100 5105 5111 5117 5124 5130 5137 5143 5149 5155 5160 5165 5169 5172 5175 5178 5180 5182 5183 5185 5185 5185 5185 5185 5184
5138 5131 5125 5118 5113 5108 5103 5100 5096 5094 5092 5091 5091 5091 5091 5092 5093 5096 5099 5103 5107 5112 5117 5123 5128 5134 5138 5143 5147 5151 5154 5157 5160 5163 5165 5166 5168 5168 5169 5169 5169 5168 5167
5140 5134 5128 5122 5116 5110 5105 5101 5098 5095 5093 5092 5091 5091 5092 5093 5094 5096 5099 5102 5105 5109 5113 5117 5121 5125 5129 5133 5136 5139 5142 5145 5147 5149 5151 5152 5153 5154 5154 5154 5153 5153 5151